Regional Weather Roundup
Issued by NWS

Home | Current Version | Previous Version | Graphics & Text | Print | Product List | Glossary On
Versions: 1 2 3 4 5 6 7 8 9 10 11 12 13 14 15 16 17 18 19 20 21 22 23 24 25 26 27 28 29 30 31 32 33 34 35 36 37 38 39 40 41 42 43 44 45 46 47 48 49 50
000
ASUS43 KLOT 012108
RWRIL

ILLINOIS REGIONAL WEATHER ROUNDUP
NATIONAL WEATHER SERVICE CHICAGO/ROMEOVILLE IL
400 PM CDT MON JUN 01 2015

NOTE: "FAIR" INDICATES FEW OR NO CLOUDS BELOW 12,000 FEET WITH NO
SIGNIFICANT WEATHER AND/OR OBSTRUCTIONS TO VISIBILITY.

* THESE STATIONS ARE NOT UNDER NWS QUALITY CONTROL. THEY ALSO MAY NOT
  REPORT WEATHER SUCH AS PRECIPITATION OR FOG.

ILZ001-002-007-009-015-016-024-012200-
NORTHWEST ILLINOIS

CITY           SKY/WX    TMP DP  RH WIND       PRES   REMARKS
MOLINE         CLOUDY    70  49  47 E8        30.16F
STERLING*      SUNNY     70  46  43 E13       30.17F
SAVANNA*       SUNNY     70  38  31 SE6       30.18F
$$

ILZ003-004-008-010-011-017-018-012200-
NORTH CENTRAL ILLINOIS

CITY           SKY/WX    TMP DP  RH WIND       PRES   REMARKS
ROCKFORD       MOSUNNY   67  44  43 E14       30.20F
FREEPORT*      SUNNY     66  45  46 NE12      30.20F
ROCHELLE*      SUNNY     66  44  45 E6G17     30.19F
DE KALB*       SUNNY     62  45  54 E12G17    30.20F
PERU*          SUNNY     67  46  46 E5        30.17F
$$

ILZ005-006-012>014-019>023-012200-
NORTHEAST ILLINOIS

CITY           SKY/WX    TMP DP  RH WIND       PRES   REMARKS
CHICAGO-OHARE  MOSUNNY   58  39  49 NE15      30.21F
CHICAGO-MIDWAY MOSUNNY   61  44  53 NE14      30.21F
AURORA         SUNNY     65  46  50 E14       30.19F
LANSING*       MOSUNNY   58  42  54 N14       30.21S
JOLIET*        MOSUNNY   64  50  59 E7        30.19F
WAUKEGAN       SUNNY     55  38  52 NE10      30.23F
DUPAGE AIRPORT SUNNY     62  45  53 NE13      30.20S
KANKAKEE*      CLOUDY    63  53  71 NE7       30.18S
WHEELING       SUNNY     57  36  45 NE10      30.24F
MORRIS*        SUNNY     66  47  50 E10       30.17S
ROMEOVILLE*    SUNNY     62  46  56 E10G16    30.19F
NORTHERLY ISL    N/A     53  45  74 N9          N/A
$$

LMZ740>746-012200-
SOUTHERN LAKE MICHIGAN

STATION/POSITION SKY/WX   TEMP    WIND        PRES    VSBY  WAVE
                          AIR SEA DIR/SP/G                  HT/PER
                          (F)     (DEG/KT/KT) (MB)    (MI)  (FT/S)
SOUTHERN BUOY              42 39  340/ 10/ 12 1024.1F         1/ 3
HARRISON CRIB              47      10/ 14/ 16   N/A
BURNHAM HARBOR             52     340/ 10/ 14   N/A
CALUMET HARBOR             52      20/  9/ 11   N/A
BURNS HARBOR               50      30/ 14/ 15 1023.7S
MICHIGAN CITY              49     350/ 13/ 15   N/A
MICHIGAN CITY 6N           48 54   10/ 12/ 16   N/A           3/ 3
ST. JOSEPH                 52 55   10/ 16/ 16   N/A           3/ 4
$$

ILZ025>027-034>036-040-047-049-050-058-095>099-012200-
WEST-CENTRAL ILLINOIS

CITY           SKY/WX    TMP DP  RH WIND       PRES   REMARKS
QUINCY         CLOUDY    64  53  67 E8        30.16F
GALESBURG*     CLOUDY    66  53  63 E5        30.17S
MACOMB*        CLOUDY    66  53  64 SE7       30.19F
JACKSONVILLE*  CLOUDY    65  56  70 NE7       30.16S
PITTSFIELD*    CLOUDY    62  54  75 E5        30.18S
$$

ILZ028>032-037-038-041>044-048-051>054-059>061-012200-
CENTRAL ILLINOIS

CITY           SKY/WX    TMP DP  RH WIND       PRES   REMARKS
PONTIAC        PTSUNNY   64  54  69 NE5       30.19S
BLOOMINGTON    CLOUDY    62  55  77 E9        30.19S
DECATUR        CLOUDY    66  55  67 NE12      30.14F
PEORIA         CLOUDY    66  54  65 VRB7      30.18S
LACON*         PTSUNNY   67  51  56 E5        30.16F
LINCOLN*       CLOUDY    65  55  71 NE7       30.15S
SPRINGFIELD    CLOUDY    67  54  63 NE7       30.16S
TAYLORVILLE    CLOUDY    64  54  68 NE9       30.14S
$$

ILZ033-039-045-046-055>057-062-063-012200-
EAST-CENTRAL ILLINOIS

CITY           SKY/WX    TMP DP  RH WIND       PRES   REMARKS
CHAMPAIGN      PTSUNNY   67  55  65 NE13      30.14F
DANVILLE*      PTSUNNY   65  55  69 NE8       30.13S
RANTOUL*       CLOUDY    66  55  66 NE8       30.15F
MATTOON        CLOUDY    64  54  69 E8        30.12F
PARIS*         MOSUNNY   67  56  70 E12       30.14S
$$

ILZ079-100>102-012200-
SOUTHWEST ILLINOIS

CITY           SKY/WX    TMP DP  RH WIND       PRES   REMARKS
ALTON          CLOUDY    63  59  88 NE9       30.14F
BELLEVILLE     PTSUNNY   65  57  74 NE7       30.11F
CAHOKIA*       CLOUDY    65  55  70 N8        30.13F
SPARTA*        CLOUDY    62  57  83 NE7       30.13S
$$

ILZ064>066-069>071-074>076-080>082-084>086-088>090-092>094-012200-
SOUTH-CENTRAL ILLINOIS

CITY           SKY/WX    TMP DP  RH WIND       PRES   REMARKS
CARBONDALE     CLOUDY    63  56  78 N5        30.11F
CAIRO*         CLOUDY    66  59  78 N7        30.09F
EFFINGHAM*     CLOUDY    64  51  60 NE6       30.14S
MARION         CLOUDY    64  57  77 MISG      30.12S
MT. VERNON     CLOUDY    61  52  72 N5        30.13F
CENTRALIA*     CLOUDY    64  53  67 NE5       30.12F
SALEM*         CLOUDY    65  55  72 E6        30.13S
$$

ILZ067-068-072-073-078-083-087-091-012200-
SOUTHEAST ILLINOIS

CITY           SKY/WX    TMP DP  RH WIND       PRES   REMARKS
LAWRENCEVILLE  CLOUDY    61  52  72 NE8       30.13F
FLORA*         MOSUNNY   60  53  75 E6        30.13F
FAIRFIELD*     CLOUDY    61  54  78 NE7       30.12S
HARRISBURG*    CLOUDY    63  56  79 N7        30.12S
ROBINSON*      CLOUDY    61  53  75 E7        30.14F
CARMI*         CLOUDY    63  50  63 N8        30.10F
$$

ABBREVIATIONS USED IN REMARKS
   TC - TEMPERATURE IN CELSIUS
  WCI - WIND CHILL INDEX
   HX - HEAT INDEX
  VSB - VISIBILITY
$$



USA.gov is the U.S. government's official web portal to all federal, state and local government web resources and services.